Home   Weather   Toruń   Past weeks

Flag for Poland Past Weather in Toruń, Poland — Yesterday and Last 2 Weeks

33 °F


Feels Like: 33 °F
Forecast: 40 / 47 °F
Wind: 1 mph from West

Location: Torun

Current Time: Oct 26, 2016 at 6:09:47 AM

Latest Report: Oct 26, 2016 at 5:00 AM

Visibility: 1 mi

Pressure: 30.33 "Hg

Humidity: 100%

Dew Point: 32 °F

Location of ToruńLocation

Past Weather in Toruń — Graph


Toruń Temperature Yesterday

Maximum temperature yesterday: 50 °F (at 2:00 PM)
Minimum temperature yesterday: 40 °F (at 11:00 PM)
Average temperature yesterday: 48 °F

High & Low Weather Summary for the Past Weeks

High53 °F (Oct 19, 1:00 PM)100% (Oct 20, 1:00 AM)30.50 "Hg (Oct 20, 1:00 AM)
Low33 °F (Oct 26, 4:00 AM)52% (Oct 14, 4:00 PM)29.94 "Hg (Oct 22, 4:00 AM)
Average44 °F88%30.17 "Hg
* Reported Oct 11 4:00 AM — Oct 26 4:00 AM, Toruń, Weather by CustomWeather, © 2016

Note: Actual official high and low records may vary slightly from our data, if they occured in-between our weather recording intervals... More about our weather records


Toruń Weather History for the Previous 24 Hours

Scroll right to see more
Time TempWeatherWind HumidityBarometerVisibility
4:00 AM
Wed, Oct 26
33 °FFog.No wind99%30.32 "Hg1 mi
3:00 AM34 °FFog.No wind100%30.30 "Hg0 mi
2:00 AM36 °FFog.No wind98%30.28 "Hg1 mi
1:00 AM40 °FFog.1 mph98%30.27 "Hg1 mi
12:00 AM41 °FFog.1 mph98%30.27 "Hg1 mi
11:00 PM
Tue, Oct 25
40 °FFog.1 mph97%30.25 "Hg1 mi
10:00 PM44 °FFog.1 mph97%30.23 "Hg1 mi
9:00 PM45 °FFog.2 mph97%30.21 "Hg1 mi
8:00 PM43 °FFog.1 mph97%30.20 "Hg0 mi
7:00 PM45 °FFog.1 mph96%30.19 "Hg1 mi
6:00 PM48 °FFog.1 mph95%30.16 "Hg1 mi
5:00 PM49 °FFog.1 mph94%30.14 "Hg2 mi
4:00 PM50 °FFog.1 mph94%30.12 "Hg2 mi
3:00 PM50 °FLow clouds.2 mph95%30.10 "Hg2 mi
2:00 PM50 °FLight rain. Low clouds.2 mph96%30.08 "Hg2 mi
1:00 PM49 °FLight rain. Low clouds.2 mph96%30.07 "Hg3 mi
12:00 PM49 °FLight rain. Low clouds.2 mph97%30.06 "Hg2 mi
11:00 AM49 °FLight rain. Low clouds.1 mph97%30.05 "Hg2 mi
10:00 AM48 °FLow clouds.2 mph97%30.03 "Hg2 mi
9:00 AM48 °FLight rain. Low clouds.2 mph97%30.02 "Hg2 mi
8:00 AM48 °FLight rain. Low clouds.2 mph98%30.01 "Hg2 mi
7:00 AM48 °FLight rain. Low clouds.1 mph98%30.00 "Hg1 mi
6:00 AM48 °FLight rain. Low clouds.2 mph98%29.99 "Hg1 mi
Weather by CustomWeather, © 2016

See weather overviewHow to use our weather pages